Location: Austin, TX
(30.3000°N, 97.7500°W)
Time: 17:14:24
(UTC-06:00)

Daily predictions for brighter satellites

Satellite Brightness Start Highest point End
(mag) Time Altitude Azimuth Time Altitude Azimuth Time Altitude Azimuth
SeaSat 1 3.2 18:13:04 10° SSE 18:17:55 59° WSW 18:22:47 10° NNW
FENGYUN 3A 4.3 18:14:22 10° SE 18:19:00 31° ENE 18:23:38 10° N
YAOGAN 1 2.8 18:15:28 10° SSE 18:19:36 47° ENE 18:23:46 10° N
OAO 3 Copernicus 4.5 18:16:01 10° WNW 18:21:04 80° SSW 18:26:07 10° ESE
OAO 3 Rocket 3.6 18:17:34 10° W 18:22:06 48° N 18:26:41 10° ENE
Cosmos 1908 4.1 18:18:27 10° NNW 18:22:14 55° W 18:25:59 10° S
SEDSat Delta rocket 4.3 18:18:23 10° WSW 18:25:01 59° SSE 18:31:10 10° E
Cosmos 2181 Rocket 4.2 18:20:11 10° S 18:26:37 84° W 18:33:06 10° N
COSMOS 2406 4.3 18:23:41 10° SSE 18:28:14 25° ESE 18:32:45 10° NE
H-2A R/B 4.4 18:29:01 10° E 18:30:55 14° ENE 18:32:51 10° NE
Meteor 2-16 Rocket 4.4 18:25:29 10° N 18:31:35 69° E 18:37:39 10° SSE
IRS-1A Rocket 4.2 18:26:13 10° SSE 18:31:41 71° ENE 18:37:14 10° N
Cosmos 44 Rocket 3.4 18:27:25 10° S 18:31:57 54° ESE 18:36:32 10° NE
Meteor 2-21 Rocket 4.5 18:27:35 10° N 18:33:42 89° E 18:39:44 10° S
Cosmos 1726 2.4 18:32:44 10° N 18:36:22 71° W 18:40:00 10° S
METEOR-M 4.1 18:31:50 10° SSE 18:37:10 82° ENE 18:42:32 10° N
CZ-4 R/B 4.4 18:36:18 10° SSE 18:40:24 85° ENE 18:44:32 10° N
Cosmos 1328 3.8 18:36:58 10° S 18:40:55 68° E 18:44:55 10° NNE
Cosmos 1400 Rocket 4.3 18:38:25 10° SSW 18:42:12 41° W 18:46:04 10° N
Ariane Rocket 4.3 18:41:47 10° S 18:46:35 44° W 18:51:24 10° NNW
Cosmos 2221 3.2 18:42:38 10° NNW 18:46:57 61° W 18:51:15 10° S
NOSS 3 (A) 4.3 18:48:50 10° SSW 18:51:37 66° ESE 18:53:28 18° NE
MOS 1 4.2 18:46:36 10° SSE 18:52:12 71° ENE 18:57:49 10° N
Cosmos 1408 Rocket 3.4 18:49:28 10° S 18:53:45 77° E 18:58:03 10° N
SL-8 Rocket 4.0 18:47:32 10° N 18:53:45 89° W 19:00:00 10° S
MONITOR-E 4.0 18:51:45 10° SSE 18:54:47 86° E 18:57:50 10° N
Meteor 2-2 Rocket 4.3 18:50:24 10° N 18:55:59 54° E 19:01:28 10° SSE
SPOT 3 Rocket 3.5 18:51:32 10° SSE 18:56:34 59° ENE 19:01:37 10° N
Cosmos 2218 Rocket 3.9 18:50:42 10° N 18:56:52 80° E 19:02:59 10° S
ALOS 2.2 18:54:01 10° SSE 18:58:39 86° E 19:03:21 10° N
Cosmos 2058 3.4 18:56:31 10° SSE 19:00:19 36° E 19:03:30 14° NNE
EO 1 Del DPAF 3.7 18:58:38 10° N 19:02:26 63° WNW 19:06:12 10° SSW
COSMO-SKYMED 1 4.1 19:01:01 10° N 19:05:00 36° WNW 19:08:58 10° SW
Cosmos 1500 Rocket 4.2 19:01:59 10° SSE 19:06:00 34° E 19:08:22 20° NE
USA 81 4.4 19:03:21 10° SSE 19:08:16 41° E 19:13:12 10° NNE
Cosmos 2151 3.2 19:04:34 10° SSE 19:08:35 44° E 19:11:34 17° NNE
Cosmos 1703 3.2 19:05:17 10° S 19:09:11 65° E 19:13:07 10° NNE
Cosmos 2228 Rocket 3.8 19:07:43 10° NNE 19:11:51 33° E 19:15:58 10° SE
SL-08 R/B 4.4 19:08:40 10° N 19:14:51 90° W 19:20:57 10° S
Cosmos 1626 2.8 19:11:56 10° SSW 19:15:33 54° W 19:19:11 10° N
Cosmos 1777 Rocket 4.1 19:11:24 10° N 19:16:28 50° ENE 19:21:33 10° SSE
Cosmos 1743 Rocket 3.4 19:15:31 10° S 19:19:52 71° E 19:23:41 13° NNE
Cosmos 2208 Rocket 4.5 19:16:37 10° SSE 19:21:25 38° E 19:22:36 34° ENE
GEOS 3 Rocket 4.5 19:23:24 29° NE 19:23:26 29° NE 19:27:59 10° N
ERS-2 2.7 19:28:45 10° S 19:32:22 58° W 19:36:00 10° NNW
Cosmos 1328 Rocket 3.4 19:28:20 10° N 19:32:43 83° E 19:37:01 10° S
Cosmos 371 Rocket 3.2 19:35:05 10° SSW 19:39:52 89° WNW 19:41:50 36° NNE
Cosmos 2098 Rocket 3.9 19:34:56 10° N 19:40:28 86° W 19:47:18 10° S
Cosmos 1656 Rocket 3.5 19:35:03 10° NNW 19:40:33 89° WSW 19:46:07 10° SSE
Cosmos 1821 Rocket 4.0 19:35:52 10° N 19:41:51 51° E 19:47:54 10° SSE
Cosmos 1943 Rocket 4.2 19:40:51 10° NW 19:45:31 28° WSW 19:50:08 10° SSW
Nadezhda 3 Rocket 4.2 19:39:29 10° SSW 19:45:44 72° W 19:52:05 10° N
Meteor 2-15 Rocket 4.3 19:41:42 10° S 19:47:48 73° E 19:51:42 23° NNE
CZ-4C R/B 3.2 19:44:57 10° S 19:47:31 26° SSE 19:47:31 26° SSE
Cosmos 1346 Rocket 4.1 19:53:51 10° NNW 19:57:29 38° W 20:01:04 10° SSW
ASTRO E2 3.5 19:53:44 10° W 19:56:43 48° W 19:56:43 48° W
Cosmos 1570 Rocket 4.1 19:53:16 10° SSW 19:58:35 75° WNW 20:00:02 48° N
Cosmos 2082 Rocket 4.5 19:58:26 10° SSE 19:58:29 10° SSE 19:58:29 10° SSE
OAO 3 Rocket 3.9 20:01:21 10° WNW 20:04:50 44° NW 20:04:50 44° NW
SL-24 R/B - RUBIN 2 4.5 20:04:04 10° NW 20:07:15 43° WNW 20:07:15 43° WNW
SEDSat Delta rocket 3.7 20:05:05 10° W 20:11:35 84° NNW 20:11:35 84° NNW
NOSS 3-4 (A) 3.9 20:07:41 10° NNW 20:14:57 81° WSW 20:19:31 27° SSE
Hubble Space Telescope 3.4 20:11:52 10° SSW 20:12:33 13° SSW 20:12:33 13° SSW
NOSS 3-4 (C) 3.9 20:07:47 10° NNW 20:15:03 82° WSW 20:19:23 29° SSE
Lacrosse 5 3.3 20:20:51 10° SSW 20:23:30 31° SSW 20:23:30 31° SSW
